Time,TemperatureF,DewpointF,PressureIn,WindDirection,WindDirectionDegrees,WindSpeedMPH,WindSpeedGustMPH,Humidity,HourlyPrecipIn,Conditions,Clouds,dailyrainin,SoftwareType,DateUTC
2013-07-18 00:08:00,67.3,67.0,30.21,South,177,0.0,0.0,97,0.00,,,0.20,weatherlink.com 1.10,2013-07-18 04:08:00,
2013-07-18 00:23:00,67.2,66.0,30.21,South,177,0.0,0.0,97,0.00,,,0.00,weatherlink.com 1.10,2013-07-18 04:23:00,
2013-07-18 00:38:00,66.9,66.0,30.20,South,177,0.0,0.0,96,0.00,,,0.00,weatherlink.com 1.10,2013-07-18 04:38:00,
2013-07-18 00:53:00,66.6,66.0,30.20,SSW,197,0.0,1.0,96,0.00,,,0.00,weatherlink.com 1.10,2013-07-18 04:53:00,
2013-07-18 01:08:00,66.5,65.0,30.20,SSW,198,0.0,0.0,96,0.00,,,0.00,weatherlink.com 1.10,2013-07-18 05:08:00,
2013-07-18 01:23:00,66.4,65.0,30.18,SSW,197,0.0,0.0,96,0.00,,,0.00,weatherlink.com 1.10,2013-07-18 05:23:00,
2013-07-18 01:38:00,66.2,65.0,30.17,SSW,198,1.0,2.0,96,0.00,,,0.00,weatherlink.com 1.10,2013-07-18 05:38:00,
2013-07-18 01:53:00,66.0,65.0,30.18,SSW,197,0.0,1.0,96,0.00,,,0.00,weatherlink.com 1.10,2013-07-18 05:53:00,
2013-07-18 02:08:00,65.8,65.0,30.17,SSW,197,0.0,0.0,96,0.00,,,0.00,weatherlink.com 1.10,2013-07-18 06:08:00,
2013-07-18 02:23:00,65.6,65.0,30.17,SSW,197,0.0,0.0,96,0.00,,,0.00,weatherlink.com 1.10,2013-07-18 06:23:00,
2013-07-18 02:38:00,65.4,64.0,30.16,SSW,198,0.0,0.0,96,0.00,,,0.00,weatherlink.com 1.10,2013-07-18 06:38:00,
2013-07-18 02:53:00,65.2,64.0,30.15,SSW,198,0.0,0.0,96,0.00,,,0.00,weatherlink.com 1.10,2013-07-18 06:53:00,
2013-07-18 03:09:00,65.0,64.0,30.15,SSW,197,0.0,0.0,96,0.00,,,0.00,weatherlink.com 1.10,2013-07-18 07:09:00,
2013-07-18 03:24:00,64.9,64.0,30.16,SSW,198,0.0,0.0,96,0.00,,,0.00,weatherlink.com 1.10,2013-07-18 07:24:00,
2013-07-18 03:39:00,65.0,64.0,30.16,SSW,198,0.0,0.0,97,0.00,,,0.00,weatherlink.com 1.10,2013-07-18 07:39:00,
2013-07-18 03:54:00,65.0,64.0,30.17,SSW,197,0.0,0.0,97,0.00,,,0.00,weatherlink.com 1.10,2013-07-18 07:54:00,
2013-07-18 04:09:00,65.0,64.0,30.16,SSW,197,0.0,0.0,97,0.00,,,0.00,weatherlink.com 1.10,2013-07-18 08:09:00,
2013-07-18 04:24:00,65.1,64.0,30.16,SSW,198,0.0,0.0,97,0.00,,,0.00,weatherlink.com 1.10,2013-07-18 08:24:00,
2013-07-18 04:39:00,65.2,64.0,30.16,SSW,197,0.0,0.0,97,0.00,,,0.00,weatherlink.com 1.10,2013-07-18 08:39:00,
2013-07-18 04:54:00,65.4,65.0,30.15,SSW,197,0.0,0.0,97,0.00,,,0.00,weatherlink.com 1.10,2013-07-18 08:54:00,
2013-07-18 05:09:00,65.4,65.0,30.15,SSW,198,0.0,0.0,97,0.00,,,0.00,weatherlink.com 1.10,2013-07-18 09:09:00,
2013-07-18 05:24:00,65.2,64.0,30.15,SSW,198,0.0,0.0,97,0.00,,,0.00,weatherlink.com 1.10,2013-07-18 09:24:00,
2013-07-18 05:39:00,65.2,64.0,30.15,SSW,197,0.0,0.0,97,0.00,,,0.00,weatherlink.com 1.10,2013-07-18 09:39:00,
2013-07-18 05:54:00,65.0,64.0,30.16,SSW,198,0.0,0.0,97,0.00,,,0.00,weatherlink.com 1.10,2013-07-18 09:54:00,
2013-07-18 06:09:00,64.8,64.0,30.17,SSW,198,0.0,0.0,97,0.00,,,0.00,weatherlink.com 1.10,2013-07-18 10:09:00,
2013-07-18 06:24:00,64.8,64.0,30.16,SSW,198,0.0,0.0,97,0.00,,,0.00,weatherlink.com 1.10,2013-07-18 10:24:00,
2013-07-18 06:39:00,64.6,64.0,30.17,SSW,197,0.0,0.0,97,0.00,,,0.00,weatherlink.com 1.10,2013-07-18 10:39:00,
2013-07-18 06:54:00,64.7,64.0,30.17,SSW,197,0.0,0.0,97,0.00,,,0.00,weatherlink.com 1.10,2013-07-18 10:54:00,
2013-07-18 07:09:00,64.7,64.0,30.16,SSW,197,0.0,0.0,97,0.00,,,0.00,weatherlink.com 1.10,2013-07-18 11:09:00,
2013-07-18 07:21:00,65.1,64.2,30.17,SSW,198,0.0,0.0,97,0.00,,,0.00,Wunderground v.1.15,2013-07-18 11:21:00,
2013-07-18 07:27:00,65.3,64.4,30.17,SSW,197,0.0,0.0,97,0.00,,,0.00,Wunderground v.1.15,2013-07-18 11:27:00,
2013-07-18 07:33:00,65.4,64.5,30.17,SSW,197,0.0,0.0,97,0.00,,,0.00,Wunderground v.1.15,2013-07-18 11:33:00,
2013-07-18 07:38:00,65.6,64.7,30.17,SSW,198,0.0,0.0,97,0.00,,,0.00,Wunderground v.1.15,2013-07-18 11:38:00,
2013-07-18 07:44:00,65.8,64.9,30.17,SSW,197,0.0,0.0,97,0.00,,,0.00,Wunderground v.1.15,2013-07-18 11:44:00,
2013-07-18 07:49:00,65.8,64.9,30.17,ESE,123,0.0,0.0,97,0.00,,,0.00,Wunderground v.1.15,2013-07-18 11:49:00,
2013-07-18 07:55:00,66.0,65.0,30.17,ESE,123,0.0,0.0,97,0.00,,,0.00,weatherlink.com 1.10,2013-07-18 11:55:00,
2013-07-18 08:00:00,66.2,65.3,30.17,ESE,123,0.0,0.0,97,0.00,,,0.00,Wunderground v.1.15,2013-07-18 12:00:00,
2013-07-18 08:06:00,66.3,65.1,30.17,ESE,120,0.0,0.0,96,0.00,,,0.00,Wunderground v.1.15,2013-07-18 12:06:00,
2013-07-18 08:11:00,66.5,65.3,30.17,ESE,120,0.0,0.0,96,0.00,,,0.00,Wunderground v.1.15,2013-07-18 12:11:00,
2013-07-18 08:17:00,66.6,65.1,30.17,East,93,0.0,0.0,95,0.00,,,0.00,Wunderground v.1.15,2013-07-18 12:17:00,
2013-07-18 08:25:00,66.7,65.0,30.18,East,93,0.0,0.0,94,0.00,,,0.00,weatherlink.com 1.10,2013-07-18 12:25:00,
2013-07-18 08:40:00,68.3,67.0,30.18,East,93,0.0,0.0,95,0.00,,,0.00,weatherlink.com 1.10,2013-07-18 12:40:00,
2013-07-18 08:55:00,70.0,68.0,30.19,East,93,0.0,0.0,92,0.00,,,0.00,weatherlink.com 1.10,2013-07-18 12:55:00,
2013-07-18 09:10:00,70.1,67.0,30.19,ENE,77,0.0,0.0,90,0.00,,,0.00,weatherlink.com 1.10,2013-07-18 13:10:00,
2013-07-18 09:25:00,69.4,67.0,30.19,NE,50,0.0,0.0,92,0.00,,,0.00,weatherlink.com 1.10,2013-07-18 13:25:00,
2013-07-18 09:41:00,71.1,68.0,30.18,ENE,63,0.0,0.0,90,0.00,,,0.00,weatherlink.com 1.10,2013-07-18 13:41:00,
2013-07-18 09:55:00,72.7,70.0,30.18,ENE,58,2.0,2.0,90,0.00,,,0.00,weatherlink.com 1.10,2013-07-18 13:55:00,
2013-07-18 10:10:00,72.7,69.0,30.17,ENE,70,1.0,2.0,88,0.00,,,0.00,weatherlink.com 1.10,2013-07-18 14:10:00,
2013-07-18 10:25:00,72.8,70.0,30.17,ENE,61,2.0,2.0,89,0.00,,,0.00,weatherlink.com 1.10,2013-07-18 14:25:00,
2013-07-18 10:40:00,74.0,70.0,30.17,East,99,0.0,2.0,87,0.00,,,0.00,weatherlink.com 1.10,2013-07-18 14:40:00,
2013-07-18 10:55:00,75.0,71.0,30.17,ENE,70,1.0,2.0,86,0.00,,,0.00,weatherlink.com 1.10,2013-07-18 14:55:00,
2013-07-18 11:10:00,76.8,72.0,30.17,ENE,61,0.0,0.0,84,0.00,,,0.00,weatherlink.com 1.10,2013-07-18 15:10:00,
2013-07-18 11:25:00,77.4,72.0,30.17,ENE,61,0.0,0.0,84,0.00,,,0.00,weatherlink.com 1.10,2013-07-18 15:25:00,
2013-07-18 11:40:00,78.2,72.0,30.16,ENE,58,1.0,3.0,81,0.00,,,0.00,weatherlink.com 1.10,2013-07-18 15:40:00,
2013-07-18 11:55:00,78.3,72.0,30.16,NW,319,0.0,2.0,82,0.00,,,0.00,weatherlink.com 1.10,2013-07-18 15:55:00,
2013-07-18 12:10:00,77.6,73.0,30.15,East,80,0.0,3.0,84,0.00,,,0.00,weatherlink.com 1.10,2013-07-18 16:10:00,
2013-07-18 12:41:00,79.9,74.0,30.15,ENE,67,0.0,2.0,81,0.00,,,0.00,weatherlink.com 1.10,2013-07-18 16:41:00,
2013-07-18 12:56:00,81.9,74.0,30.15,SSW,198,0.0,2.0,77,0.00,,,0.00,weatherlink.com 1.10,2013-07-18 16:56:00,
2013-07-18 13:11:00,82.2,74.0,30.14,NE,49,0.0,3.0,75,0.00,,,0.00,weatherlink.com 1.10,2013-07-18 17:11:00,
2013-07-18 13:26:00,83.9,75.0,30.14,SSE,160,0.0,0.0,74,0.00,,,0.00,weatherlink.com 1.10,2013-07-18 17:26:00,
2013-07-18 13:41:00,84.2,73.0,30.14,SE,125,2.0,7.0,69,0.00,,,0.00,weatherlink.com 1.10,2013-07-18 17:41:00,
2013-07-18 13:56:00,84.8,70.0,30.13,NE,52,0.0,2.0,62,0.00,,,0.00,weatherlink.com 1.10,2013-07-18 17:56:00,
2013-07-18 14:11:00,86.2,74.0,30.12,SSW,195,0.0,2.0,67,0.00,,,0.00,weatherlink.com 1.10,2013-07-18 18:11:00,
2013-07-18 14:26:00,84.8,73.0,30.11,NNW,342,0.0,2.0,68,0.00,,,0.00,weatherlink.com 1.10,2013-07-18 18:26:00,
2013-07-18 14:41:00,84.9,70.0,30.10,SSW,207,0.0,2.0,62,0.00,,,0.00,weatherlink.com 1.10,2013-07-18 18:41:00,
2013-07-18 14:56:00,84.8,72.0,30.10,SW,228,1.0,2.0,65,0.00,,,0.00,weatherlink.com 1.10,2013-07-18 18:56:00,
2013-07-18 15:11:00,84.5,72.0,30.09,NE,37,1.0,2.0,66,0.00,,,0.00,weatherlink.com 1.10,2013-07-18 19:11:00,
2013-07-18 15:41:00,83.8,71.0,30.08,NE,43,1.0,2.0,66,0.00,,,0.00,weatherlink.com 1.10,2013-07-18 19:41:00,
2013-07-18 15:56:00,82.4,73.0,30.08,WNW,297,1.0,2.0,73,0.00,,,0.00,weatherlink.com 1.10,2013-07-18 19:56:00,
2013-07-18 16:11:00,82.7,72.0,30.06,NNW,342,1.0,1.0,69,0.00,,,0.00,weatherlink.com 1.10,2013-07-18 20:11:00,
2013-07-18 16:26:00,81.6,72.0,30.06,East,82,1.0,7.0,72,0.00,,,0.00,weatherlink.com 1.10,2013-07-18 20:26:00,
2013-07-18 16:41:00,81.4,72.0,30.07,West,277,0.0,5.0,72,0.00,,,0.00,weatherlink.com 1.10,2013-07-18 20:41:00,
2013-07-18 16:56:00,81.0,71.0,30.06,NNW,330,1.0,5.0,71,0.00,,,0.00,weatherlink.com 1.10,2013-07-18 20:56:00,
2013-07-18 17:11:00,80.9,71.0,30.06,NE,51,1.0,3.0,71,0.00,,,0.00,weatherlink.com 1.10,2013-07-18 21:11:00,
2013-07-18 17:26:00,81.1,71.0,30.05,NNW,338,0.0,1.0,72,0.00,,,0.00,weatherlink.com 1.10,2013-07-18 21:26:00,
2013-07-18 17:41:00,80.5,71.0,30.06,NNW,328,1.0,2.0,73,0.00,,,0.00,weatherlink.com 1.10,2013-07-18 21:41:00,
2013-07-18 17:56:00,79.8,72.0,30.07,SW,217,0.0,2.0,77,0.00,,,0.00,weatherlink.com 1.10,2013-07-18 21:56:00,
2013-07-18 18:11:00,79.4,71.0,30.07,SSW,208,0.0,2.0,75,0.00,,,0.00,weatherlink.com 1.10,2013-07-18 22:11:00,
2013-07-18 18:26:00,79.1,71.0,30.06,SSW,208,0.0,1.0,77,0.00,,,0.00,weatherlink.com 1.10,2013-07-18 22:26:00,
2013-07-18 18:41:00,77.6,71.0,30.06,NNW,340,0.0,2.0,81,0.00,,,0.00,weatherlink.com 1.10,2013-07-18 22:41:00,
2013-07-18 18:56:00,77.0,72.0,30.06,NW,317,0.0,1.0,83,0.00,,,0.00,weatherlink.com 1.10,2013-07-18 22:56:00,
2013-07-18 19:11:00,76.9,71.0,30.07,SW,229,0.0,0.0,83,0.00,,,0.00,weatherlink.com 1.10,2013-07-18 23:11:00,
2013-07-18 19:26:00,76.8,71.0,30.07,SW,229,0.0,0.0,83,0.00,,,0.00,weatherlink.com 1.10,2013-07-18 23:26:00,
2013-07-18 19:41:00,76.3,72.0,30.07,SW,230,0.0,0.0,85,0.00,,,0.00,weatherlink.com 1.10,2013-07-18 23:41:00,
2013-07-18 19:56:00,75.8,71.0,30.07,SW,229,0.0,0.0,86,0.00,,,0.00,weatherlink.com 1.10,2013-07-18 23:56:00,
2013-07-18 20:11:00,75.4,72.0,30.07,SW,229,0.0,0.0,88,0.00,,,0.00,weatherlink.com 1.10,2013-07-19 00:11:00,
2013-07-18 20:26:00,74.6,71.0,30.07,SW,230,0.0,0.0,89,0.00,,,0.00,weatherlink.com 1.10,2013-07-19 00:26:00,
2013-07-18 20:41:00,74.1,71.0,30.07,SW,229,0.0,0.0,90,0.00,,,0.00,weatherlink.com 1.10,2013-07-19 00:41:00,
2013-07-18 20:56:00,73.5,70.0,30.06,SW,230,0.0,0.0,89,0.00,,,0.00,weatherlink.com 1.10,2013-07-19 00:56:00,
2013-07-18 21:11:00,72.7,69.0,30.08,SW,229,0.0,0.0,88,0.00,,,0.00,weatherlink.com 1.10,2013-07-19 01:11:00,
2013-07-18 21:26:00,72.3,69.0,30.09,SW,229,0.0,1.0,90,0.00,,,0.00,weatherlink.com 1.10,2013-07-19 01:26:00,
2013-07-18 21:41:00,72.1,70.0,30.09,SW,229,0.0,1.0,92,0.00,,,0.00,weatherlink.com 1.10,2013-07-19 01:41:00,
2013-07-18 21:56:00,71.6,70.0,30.10,SW,229,0.0,0.0,93,0.00,,,0.00,weatherlink.com 1.10,2013-07-19 01:56:00,
2013-07-18 22:11:00,71.4,70.0,30.11,SW,229,0.0,0.0,94,0.00,,,0.00,weatherlink.com 1.10,2013-07-19 02:11:00,
2013-07-18 22:26:00,71.4,70.0,30.11,SW,229,0.0,0.0,94,0.00,,,0.00,weatherlink.com 1.10,2013-07-19 02:26:00,
2013-07-18 22:42:00,71.2,69.0,30.11,SW,230,0.0,0.0,94,0.00,,,0.00,weatherlink.com 1.10,2013-07-19 02:42:00,
2013-07-18 22:57:00,70.7,69.0,30.11,SW,229,0.0,0.0,94,0.00,,,0.00,weatherlink.com 1.10,2013-07-19 02:57:00,
2013-07-18 23:12:00,70.4,68.0,30.11,SW,229,0.0,0.0,93,0.00,,,0.00,weatherlink.com 1.10,2013-07-19 03:12:00,
2013-07-18 23:27:00,70.2,69.0,30.11,SW,229,0.0,0.0,94,0.00,,,0.00,weatherlink.com 1.10,2013-07-19 03:27:00,
2013-07-18 23:42:00,70.0,68.0,30.12,SW,229,0.0,0.0,94,0.00,,,0.00,weatherlink.com 1.10,2013-07-19 03:42:00,
2013-07-18 23:57:00,69.8,68.0,30.11,SW,229,0.0,0.0,95,0.00,,,0.00,weatherlink.com 1.10,2013-07-19 03:57:00,